Wind_Speed
10 8 6 2 4 2 2 6 7 6 5 2 0 1 2 1 2 2 3 5 7 7 6 4 2 0 0 1 2 1 2 4 4 4 4 2 3 2 5 1 6 9 10
11 6 8 7 5 2 1 3 5 5 5 3 1 2 3 2 1 1 1 3 4 5 4 4 3 2 1 1 0 1 2 2 3 4 6 6 7 6 4 8 9 10 13
10 2 6 12 8 6 2 2 4 6 7 5 3 1 2 2 1 1 1 1 3 3 4 4 3 3 3 3 3 2 1 1 2 4 5 4 6 7 9 10 9 14 16
3 9 11 10 8 6 5 2 2 6 7 6 3 2 1 4 3 3 1 2 3 3 3 3 3 3 3 3 3 2 2 2 3 3 5 4 8 14 15 16 14 12 10
1 2 7 6 8 9 7 3 2 5 6 7 5 1 3 3 2 2 2 2 2 1 2 2 2 2 2 1 2 2 2 2 3 3 4 6 7 7 8 9 10 10 11
4 7 7 11 12 12 10 7 4 6 5 8 7 2 1 1 2 3 2 2 2 1 1 1 1 1 2 3 4 5 4 4 4 5 4 5 6 7 8 9 10 11 12
9 12 13 13 18 17 15 11 8 6 5 5 6 4 4 3 1 3 4 3 3 3 2 2 3 3 5 6 7 6 3 4 5 7 7 7 7 7 8 9 10 10 10
11 16 19 22 24 24 20 14 10 9 4 4 6 5 3 2 3 2 3 4 4 5 6 5 5 5 6 7 9 9 7 8 8 8 7 7 8 8 8 10 11 12 13
13 18 23 27 26 30 25 20 14 13 8 5 2 6 6 4 4 3 2 4 5 7 7 8 8 8 9 9 9 8 7 8 10 9 9 10 10 9 10 12 11 12 12
8 19 14 16 23 19 23 18 20 18 12 8 2 5 7 6 5 5 4 4 5 7 8 10 9 8 9 12 10 11 10 11 12 11 11 10 11 11 10 10 10 10 11
10 13 15 13 16 12 13 16 23 9 10 8 8 9 11 9 7 8 6 6 6 6 9 10 9 10 10 10 11 11 10 11 10 10 12 12 9 4 7 9 10 11 11
9 9 12 12 13 15 14 17 7 13 9 9 12 12 10 9 10 10 10 9 8 7 8 10 11 10 11 13 14 14 13 13 12 12 12 10 6 7 6 7 10 11 12
9 10 9 11 11 12 13 13 9 12 12 14 15 14 11 12 13 13 13 12 10 9 9 10 12 13 15 14 14 13 13 12 12 11 10 9 8 9 10 12 12 11 12
11 12 13 14 14 15 15 16 19 22 22 19 21 20 18 15 17 15 15 14 13 12 12 12 13 14 15 14 12 12 11 11 11 11 10 9 10 12 11 11 11 11 12
14 15 13 14 17 17 19 20 20 20 21 22 24 25 25 22 16 16 16 17 15 16 16 14 15 16 15 13 12 10 11 11 10 10 10 11 12 12 11 11 10 10 11
17 20 22 23 23 20 19 19 19 19 19 21 21 22 25 21 18 17 19 19 17 17 17 16 16 16 16 15 13 13 12 8 10 11 11 12 13 12 12 11 10 10 9
19 21 24 27 27 24 23 22 21 20 21 20 19 19 20 18 23 26 22 19 19 19 18 17 17 17 17 17 14 12 11 11 12 12 12 12 13 12 11 11 10 9 10
23 26 29 32 32 30 27 25 25 23 22 21 20 21 18 27 26 23 24 24 23 20 19 19 19 17 19 19 12 14 16 15 13 13 14 14 14 12 11 10 7 9 10
27 24 24 25 27 28 30 29 28 28 26 23 22 22 22 20 24 30 30 24 24 22 20 20 19 19 20 16 17 19 19 18 15 17 17 14 14 12 9 10 10 12 14
23 21 22 22 23 25 24 25 28 28 28 27 25 23 24 29 31 29 25 29 23 21 20 19 20 20 20 18 20 20 21 19 18 17 15 15 11 9 14 12 15 17 19
17 21 24 23 22 23 23 22 20 18 20 19 19 20 24 20 20 23 23 23 21 19 20 19 21 21 21 19 23 19 17 17 15 18 12 9 15 17 21 22 24 25 22
23 24 27 26 24 21 22 19 15 19 22 22 20 19 23 23 25 21 20 21 19 18 20 22 23 20 18 24 24 20 18 15 16 15 17 18 20 25 28 29 28 27 25
29 28 28 27 24 24 20 15 24 16 19 23 24 28 26 30 23 20 19 23 17 14 19 23 18 23 29 31 27 24 22 22 20 19 21 24 27 31 31 31 30 28 27
30 25 24 24 24 25 23 18 23 26 24 26 32 28 21 21 19 19 22 25 19 16 18 20 18 20 23 29 30 28 27 29 28 25 30 32 33 36 35 33 31 29 29
29 28 25 28 23 25 25 21 19 25 24 30 31 31 28 28 31 30 29 28 30 26 22 24 25 23 22 23 24 25 25 29 31 31 35 37 35 35 34 33 31 29 28
31 27 27 26 28 23 22 24 20 23 27 25 27 26 33 34 35 36 35 30 24 26 31 33 35 34 36 33 27 28 29 30 28 30 32 31 32 32 32 31 31 30 29
Wind_Direction
316 293 238 162 216 238 36 26 27 15 20 358 117 223 240 222 116 92 64 55 52 51 44 34 32 315 350 78 74 94 183 199 218 223 227 255 240 299 290 326 310 308 296
326 330 245 192 210 210 46 22 26 13 15 11 70 175 195 204 154 141 69 53 51 50 48 42 29 23 40 44 68 161 200 201 226 239 262 249 232 261 268 283 286 295 302
340 124 191 170 185 186 161 340 352 349 1 13 360 266 184 221 213 257 314 348 12 15 13 360 352 357 19 10 21 13 336 282 260 262 274 233 207 217 259 246 272 285 299
346 149 165 173 187 201 197 235 323 359 9 13 343 328 283 236 222 216 229 318 338 348 9 27 44 61 64 50 48 35 342 306 289 281 274 260 212 229 248 252 272 277 282
188 162 193 204 216 221 218 230 283 329 5 16 7 321 244 239 238 289 320 319 319 334 43 47 34 31 55 36 11 352 333 307 291 286 280 270 261 262 264 264 271 282 286
311 294 251 220 231 232 233 241 266 310 349 18 15 71 94 207 208 228 263 278 287 8 74 103 64 326 328 357 346 329 313 318 317 308 302 291 280 283 285 283 282 287 291
312 308 294 251 246 238 235 237 254 275 317 15 18 41 49 70 275 241 248 253 242 244 220 254 310 311 321 335 347 340 317 317 315 309 296 292 282 274 271 273 278 280 285
308 305 286 249 249 244 236 230 234 242 289 340 11 353 18 344 350 327 241 243 252 249 253 272 283 280 291 313 330 327 318 321 315 309 296 288 291 293 291 289 292 299 301
314 319 303 271 259 252 248 225 213 226 250 270 354 4 357 340 307 328 308 266 248 260 272 277 275 282 287 293 308 326 309 310 311 306 299 294 293 289 289 290 293 297 300
334 345 349 294 279 261 251 280 213 220 220 242 256 2 340 342 308 299 316 306 288 275 266 270 278 289 277 280 288 305 305 300 302 298 292 288 290 293 290 288 291 290 292
309 340 353 36 20 7 306 295 272 202 225 239 261 305 309 306 312 293 305 307 302 296 280 286 281 280 280 287 296 300 291 297 294 288 288 289 284 242 274 288 290 292 292
319 334 337 328 346 15 17 5 28 319 245 294 302 299 280 282 299 289 286 289 286 285 268 278 288 276 279 286 294 296 296 298 296 292 292 287 268 278 286 283 285 285 283
298 320 324 322 317 314 331 314 331 335 318 315 309 314 291 282 276 279 270 286 289 298 294 296 294 293 289 285 282 279 285 285 282 283 285 294 300 296 300 295 292 286 281
307 305 306 308 308 295 296 309 309 303 299 291 284 288 281 273 270 273 269 276 283 282 283 283 284 285 285 277 267 276 267 267 268 272 277 283 287 287 288 285 289 293 291
293 294 295 304 305 300 296 294 293 296 295 291 282 276 277 281 265 270 272 268 273 273 275 279 279 281 281 276 277 261 259 255 258 265 279 282 284 289 288 293 295 294 294
284 287 284 294 300 298 295 293 289 285 286 286 280 268 270 270 265 272 268 271 273 274 275 274 276 276 275 275 271 247 256 264 258 267 276 283 288 290 289 289 292 293 304
291 289 286 287 290 289 288 289 286 283 282 281 280 273 264 263 269 272 272 273 268 269 271 270 271 272 270 271 261 271 284 275 270 281 290 290 288 288 286 289 291 297 310
291 292 290 289 285 282 282 281 282 279 277 273 272 274 262 253 262 274 279 279 277 277 271 266 266 265 270 274 289 294 279 274 281 292 286 283 284 286 282 275 281 284 300
300 296 292 292 290 284 279 276 274 273 271 272 271 266 257 264 260 266 269 272 268 266 263 257 255 253 261 271 268 283 285 282 279 277 281 290 285 268 289 278 286 302 300
304 301 298 297 297 296 295 287 276 271 267 267 268 270 264 256 260 265 264 272 263 260 255 250 246 248 256 253 264 283 284 277 282 276 274 276 270 279 299 296 298 301 301
305 310 305 301 296 293 294 293 288 278 277 273 269 280 277 275 281 277 264 260 262 257 251 245 242 239 252 258 266 269 262 264 273 252 260 273 268 284 297 302 299 301 299
309 309 306 304 303 307 300 298 279 269 277 271 270 260 258 281 291 283 264 255 249 249 244 229 235 245 246 257 268 273 279 280 281 274 266 282 297 296 293 287 290 294 294
296 298 299 299 302 301 297 296 269 272 269 258 264 265 263 270 278 265 253 255 243 244 244 232 234 243 246 254 262 272 278 276 283 289 287 284 277 280 280 283 288 291 289
287 292 293 291 297 297 294 282 269 276 253 270 260 262 264 258 263 261 258 261 249 264 248 235 236 247 250 254 258 264 269 274 278 282 277 269 273 279 279 283 286 286 285
276 282 288 288 291 300 292 286 275 275 275 265 284 282 240 249 248 245 250 256 264 241 238 248 259 265 259 264 283 274 278 276 275 269 269 273 274 272 276 280 283 284 285
269 271 273 281 288 278 285 285 263 266 264 268 269 271 261 259 263 258 263 262 237 221 224 235 240 239 245 254 267 279 280 275 267 262 267 268 270 276 282 284 284 284 284
Height
3168 3168 3167 3169 3171 3171 3170 3170 3169 3167 3166 3166 3165 3165 3165 3166 3166 3166 3166 3166 3165 3165 3165 3165 3165 3165 3165 3165 3164 3165 3165 3166 3167 3168 3168 3169 3169 3169 3170 3170 3171 3171 3170
3166 3166 3167 3169 3170 3171 3170 3170 3169 3169 3167 3166 3165 3165 3165 3166 3166 3166 3166 3166 3165 3166 3165 3165 3166 3165 3165 3165 3164 3164 3164 3166 3166 3166 3166 3167 3168 3168 3169 3169 3169 3168 3168
3164 3164 3166 3167 3170 3170 3170 3171 3170 3169 3167 3164 3164 3164 3164 3164 3165 3166 3165 3165 3165 3165 3164 3164 3165 3165 3165 3164 3164 3164 3164 3164 3164 3164 3164 3164 3165 3165 3166 3166 3166 3166 3165
3166 3165 3167 3168 3169 3170 3170 3171 3171 3169 3167 3164 3164 3164 3163 3163 3163 3164 3164 3164 3164 3165 3164 3164 3165 3165 3164 3164 3164 3164 3164 3164 3163 3162 3162 3162 3163 3164 3164 3164 3163 3162 3161
3166 3166 3167 3168 3169 3169 3169 3169 3169 3169 3167 3165 3163 3163 3163 3163 3163 3163 3163 3163 3163 3163 3164 3164 3164 3164 3164 3163 3162 3162 3162 3162 3161 3160 3160 3160 3159 3160 3159 3159 3159 3158 3157
3166 3166 3167 3166 3167 3167 3168 3168 3168 3168 3166 3165 3163 3161 3160 3160 3160 3161 3161 3161 3162 3162 3163 3163 3163 3162 3162 3162 3161 3160 3160 3160 3159 3158 3157 3157 3156 3156 3156 3156 3155 3154 3153
3164 3164 3164 3165 3165 3163 3165 3165 3166 3166 3166 3165 3163 3161 3159 3158 3159 3159 3160 3160 3160 3161 3162 3162 3161 3161 3160 3159 3159 3158 3158 3157 3156 3155 3155 3155 3154 3153 3152 3152 3151 3150 3149
3163 3162 3161 3159 3159 3158 3154 3159 3163 3164 3164 3164 3163 3160 3159 3158 3157 3157 3157 3158 3159 3159 3159 3160 3160 3159 3158 3158 3157 3156 3155 3154 3153 3152 3152 3151 3150 3149 3149 3148 3147 3146 3145
3161 3159 3155 3154 3153 3149 3151 3147 3153 3158 3161 3162 3162 3160 3159 3157 3157 3156 3155 3155 3156 3156 3156 3156 3156 3156 3156 3155 3155 3154 3153 3151 3150 3149 3148 3147 3146 3145 3145 3143 3143 3143 3142
3157 3156 3151 3149 3149 3145 3145 3126 3144 3148 3153 3157 3158 3158 3157 3156 3155 3155 3154 3154 3153 3153 3154 3153 3153 3153 3153 3153 3152 3151 3149 3148 3147 3145 3144 3144 3143 3142 3141 3140 3139 3140 3139
3156 3154 3152 3150 3149 3146 3146 3143 3136 3132 3146 3150 3153 3155 3154 3153 3152 3151 3151 3151 3151 3150 3150 3150 3149 3149 3149 3148 3148 3148 3147 3145 3144 3142 3141 3141 3142 3141 3139 3138 3137 3136 3136
3153 3151 3150 3150 3148 3147 3144 3145 3143 3141 3142 3143 3146 3148 3149 3149 3149 3148 3149 3149 3148 3148 3147 3146 3146 3146 3146 3145 3144 3143 3142 3141 3140 3138 3138 3138 3138 3137 3137 3136 3135 3134 3133
3151 3149 3149 3148 3147 3146 3143 3144 3144 3144 3143 3144 3144 3144 3144 3146 3145 3145 3145 3144 3144 3143 3142 3142 3142 3141 3141 3141 3140 3140 3138 3137 3136 3136 3136 3134 3134 3134 3133 3132 3131 3130 3128
3146 3146 3145 3145 3145 3145 3142 3140 3140 3140 3141 3141 3140 3140 3140 3141 3140 3140 3140 3140 3139 3139 3139 3139 3138 3138 3137 3136 3136 3135 3134 3133 3133 3133 3132 3132 3131 3131 3130 3129 3127 3126 3125
3143 3143 3142 3141 3140 3139 3138 3137 3136 3136 3135 3134 3134 3134 3133 3136 3136 3135 3135 3135 3135 3134 3134 3133 3133 3132 3132 3132 3131 3130 3130 3130 3130 3129 3129 3128 3128 3127 3126 3124 3123 3122 3120
3140 3139 3138 3137 3136 3134 3133 3133 3132 3131 3130 3129 3128 3127 3128 3128 3129 3130 3130 3129 3129 3129 3128 3128 3128 3127 3126 3126 3126 3127 3126 3125 3126 3125 3125 3124 3123 3122 3121 3120 3119 3118 3117
3134 3133 3132 3131 3131 3130 3128 3127 3126 3126 3125 3124 3122 3121 3121 3122 3123 3124 3123 3123 3123 3123 3123 3123 3122 3122 3121 3121 3121 3121 3120 3121 3121 3121 3120 3119 3118 3117 3116 3115 3114 3113 3113
3128 3126 3124 3122 3121 3121 3121 3119 3119 3118 3117 3117 3116 3115 3115 3116 3116 3116 3115 3116 3116 3116 3117 3117 3117 3116 3115 3114 3112 3114 3116 3117 3116 3116 3115 3114 3113 3112 3111 3111 3109 3108 3109
3119 3116 3114 3113 3111 3110 3110 3109 3109 3109 3108 3108 3108 3108 3109 3108 3110 3109 3109 3110 3110 3110 3110 3110 3110 3110 3110 3109 3110 3110 3110 3110 3111 3111 3110 3108 3108 3108 3107 3107 3106 3106 3105
3110 3109 3107 3106 3104 3102 3100 3099 3099 3099 3099 3100 3100 3100 3101 3102 3102 3102 3101 3101 3102 3102 3102 3103 3103 3104 3104 3104 3106 3106 3105 3105 3104 3104 3103 3103 3102 3101 3101 3103 3103 3102 3100
3105 3103 3100 3099 3098 3096 3094 3092 3091 3090 3091 3091 3093 3094 3093 3093 3094 3093 3092 3093 3094 3095 3095 3096 3097 3097 3099 3100 3102 3102 3102 3101 3100 3100 3099 3099 3099 3098 3098 3096 3096 3095 3094
3099 3097 3094 3093 3091 3089 3087 3086 3085 3085 3085 3084 3085 3087 3086 3087 3087 3086 3086 3087 3088 3089 3090 3091 3091 3091 3092 3094 3095 3096 3095 3094 3094 3093 3093 3093 3092 3093 3093 3091 3089 3088 3086
3092 3091 3089 3086 3085 3083 3082 3081 3080 3079 3079 3079 3080 3080 3083 3083 3081 3081 3081 3082 3082 3083 3084 3085 3084 3085 3087 3087 3087 3088 3087 3087 3088 3088 3088 3088 3087 3086 3085 3083 3081 3080 3078
3086 3084 3082 3080 3080 3078 3076 3075 3075 3074 3072 3072 3073 3073 3074 3075 3074 3075 3073 3074 3075 3076 3076 3078 3077 3080 3081 3081 3080 3081 3081 3080 3081 3082 3081 3080 3079 3077 3076 3074 3072 3071 3069
3078 3077 3076 3075 3073 3072 3071 3069 3069 3068 3068 3068 3067 3066 3065 3067 3066 3065 3067 3068 3067 3067 3071 3072 3073 3072 3072 3072 3073 3074 3075 3075 3074 3072 3071 3070 3069 3068 3066 3064 3063 3061 3059
3068 3067 3067 3065 3064 3064 3063 3061 3062 3063 3062 3062 3062 3060 3060 3059 3059 3061 3061 3060 3060 3059 3059 3061 3063 3064 3062 3064 3063 3064 3064 3063 3062 3062 3060 3060 3059 3057 3055 3053 3052 3050 3049